Overview Statistics Trail Chart Weather Telemetry Raw packets
 

This is the latest recevied weather packets stored in our database for station/object 4S6DRJ-13. If no packets are shown the sender has not sent any weather packets the latest 10 day(s).

<< 21 22 23 24 25 26 27 >>
Time Temp. Humidity Pressure Rain* Wind** Luminosity Snow
1788412656 30.56° C 73% 1009.9 hPa 0 mm 1.34 m/s, 186° 324 W/m² -
1788412595 30.56° C 73% 1010.1 hPa 0 mm 0.89 m/s, 225° 1128 W/m² -
1788412534 31.11° C 72% 1010 hPa 0 mm 2.24 m/s, 206° 1133 W/m² -
1788412473 31.11° C 72% 1010.1 hPa 0 mm 0.89 m/s, 190° 580 W/m² -
1788412412 31.11° C 73% 1010.2 hPa 0 mm 1.79 m/s, 320° 339 W/m² -
1788412351 31.11° C 73% 1009.9 hPa 0 mm 0.45 m/s, 216° 348 W/m² -
1788412290 31.11° C 74% 1010 hPa 0 mm 0.89 m/s, 161° 340 W/m² -
1788412229 31.11° C 73% 1010.1 hPa 0 mm 1.34 m/s, 231° 791 W/m² -
1788412168 31.11° C 73% 1009.7 hPa 0 mm 3.13 m/s, 289° 1122 W/m² -
1788412107 31.11° C 72% 1010.2 hPa 0 mm 2.68 m/s, 271° 1122 W/m² -
1788412046 31.67° C 71% 1010.2 hPa 0 mm 1.79 m/s, 271° 1126 W/m² -
1788411985 31.67° C 71% 1010.2 hPa 0 mm 2.24 m/s, 284° 370 W/m² -
1788411924 31.67° C 72% 1010 hPa 0 mm 0.89 m/s, 275° 1125 W/m² -
1788411863 31.67° C 71% 1010.2 hPa 0 mm 3.13 m/s, 258° 1123 W/m² -
1788411802 31.11° C 72% 1010 hPa 0 mm 0.89 m/s, 187° 1118 W/m² -
1788411741 31.11° C 72% 1009.9 hPa 0 mm 1.34 m/s, 286° 1112 W/m² -
1788411680 31.11° C 72% 1010 hPa 0 mm 1.34 m/s, 303° 1110 W/m² -
1788411619 31.11° C 71% 1010.1 hPa 0 mm 1.79 m/s, 231° 1111 W/m² -
1788411558 31.11° C 72% 1010.2 hPa 0 mm 1.79 m/s, 280° 878 W/m² -
1788411497 30.56° C 73% 1010.1 hPa 0 mm 1.79 m/s, 275° 1107 W/m² -
1788411436 30.56° C 73% 1010.1 hPa 0 mm 2.24 m/s, 158° 1110 W/m² -
1788411375 30.56° C 74% 1010.2 hPa 0 mm 0.45 m/s, 190° 1112 W/m² -
1788411314 30.56° C 74% 1010.2 hPa 0 mm 1.79 m/s, 250° 1114 W/m² -
1788411253 30.56° C 73% 1010.2 hPa 0 mm 2.24 m/s, 291° 1111 W/m² -
1788411192 30.56° C 72% 1010.1 hPa 0 mm 3.13 m/s, 267° 1113 W/m² -

* Rain latest hour (hover to see other rain measurements)
** Current wind speed in m/s (hover to see current wind gust speed)